Back to catalog

COSMOS 2251 DEB

AliveLEO
NORAD 37340·DEBRIS·🇷🇺 Russia

Launched Jun 16, 1993 from Plesetsk Cosmodrome

Loading…

Next Passes (next 24 hours)

TLE

FreshSource: Space-Track

Epoch: Sep 14, 2026, 08:02 UTC

1 37340U 93036BLG 26257.33479962  .00000258  00000-0  95306-4 0  9995
2 37340  74.0244 130.0078 0018138 165.7956 194.3712 14.37176533880260

Track COSMOS 2251 DEB in real time with AllMySat

Download on the App Store